| time (UTC) | temp F | wind direction | speed knots | gust knots | rain 1hr in | rain 24hr in | rain mn in | humidity % | barometer mb |
| 20260503010020 | 50 | 318 | 0.0 | 1.7 | 0.00 | 0.22 | 0.01 | 88 | 1010.7 |
| 20260503004516 | 51 | 307 | 0.0 | 0.9 | 0.00 | 0.22 | 0.01 | 88 | 1010.6 |
| 20260503003028 | 51 | 323 | 0.0 | 0.9 | 0.00 | 0.22 | 0.01 | 88 | 1010.6 |
| 20260503001525 | 51 | 314 | 0.0 | 0.9 | 0.00 | 0.22 | 0.01 | 88 | 1010.8 |
| 20260503000023 | 51 | 63 | 0.0 | 0.0 | 0.00 | 0.21 | 0.00 | 88 | 1011.0 |
| 20260502234522 | 51 | 63 | 0.0 | 0.0 | 0.00 | 0.21 | 0.00 | 88 | 1011.2 |
| 20260502233022 | 52 | 63 | 0.0 | 0.9 | 0.01 | 0.21 | 0.00 | 88 | 1011.2 |
| 20260502231517 | 52 | 63 | 0.0 | 0.9 | 0.02 | 0.21 | 0.00 | 88 | 1011.3 |
| 20260502230015 | 52 | 61 | 0.0 | 0.9 | 0.03 | 0.20 | 0.00 | 88 | 1011.4 |
| 20260502224510 | 52 | 169 | 0.0 | 0.0 | 0.04 | 0.20 | 0.20 | 88 | 1011.4 |
| 20260502223006 | 52 | 169 | 0.0 | 0.0 | 0.04 | 0.19 | 0.19 | 88 | 1011.5 |
| 20260502221505 | 52 | 169 | 0.0 | 0.0 | 0.05 | 0.18 | 0.18 | 88 | 1011.5 |
| 20260502220004 | 52 | 169 | 0.0 | 0.0 | 0.04 | 0.17 | 0.17 | 88 | 1011.6 |
| 20260502214519 | 52 | 169 | 0.0 | 0.0 | 0.04 | 0.15 | 0.15 | 88 | 1011.6 |
| 20260502213018 | 52 | 169 | 0.0 | 0.0 | 0.04 | 0.14 | 0.14 | 88 | 1011.6 |
| 20260502211515 | 52 | 169 | 0.0 | 0.0 | 0.04 | 0.13 | 0.13 | 88 | 1011.7 |
| 20260502210013 | 52 | 169 | 0.0 | 0.0 | 0.04 | 0.12 | 0.12 | 88 | 1011.8 |
| 20260502204508 | 53 | 169 | 0.0 | 0.0 | 0.04 | 0.11 | 0.11 | 88 | 1011.9 |
| 20260502203022 | 53 | 169 | 0.0 | 0.0 | 0.04 | 0.10 | 0.10 | 88 | 1012.1 |
| 20260502201525 | 53 | 169 | 0.0 | 0.0 | 0.03 | 0.08 | 0.08 | 88 | 1012.2 |
| 20260502200034 | 53 | 169 | 0.0 | 0.0 | 0.03 | 0.07 | 0.07 | 87 | 1012.3 |
| 20260502194515 | 54 | 169 | 0.0 | 0.0 | 0.03 | 0.06 | 0.06 | 87 | 1012.3 |
| 20260502193021 | 54 | 169 | 0.0 | 0.0 | 0.03 | 0.05 | 0.05 | 87 | 1012.4 |
| 20260502191510 | 54 | 169 | 0.0 | 0.0 | 0.03 | 0.04 | 0.04 | 86 | 1012.5 |
| 20260502190025 | 55 | 169 | 0.0 | 0.0 | 0.03 | 0.03 | 0.03 | 86 | 1012.6 |
| 20260502184525 | 55 | 169 | 0.0 | 0.9 | 0.02 | 0.03 | 0.03 | 85 | 1012.7 |
| 20260502183022 | 56 | 165 | 0.0 | 1.7 | 0.00 | 0.01 | 0.01 | 83 | 1012.8 |
| 20260502181518 | 57 | 165 | 0.9 | 2.6 | 0.00 | 0.00 | 0.00 | 78 | 1012.7 |
| 20260502163020 | 60 | 92 | 2.6 | 4.3 | 0.00 | 0.00 | 0.00 | 63 | 1012.9 |
| 20260502161512 | 61 | 100 | 0.9 | 4.3 | 0.00 | 0.00 | 0.00 | 63 | 1013.0 |
| 20260502151522 | 61 | 79 | 0.0 | 1.7 | 0.00 | 0.01 | 0.00 | 63 | 1013.8 |
| 20260502123010 | 62 | 224 | 0.9 | 7.0 | 0.00 | 0.06 | 0.00 | 58 | 1015.4 |
| 20260502113019 | 59 | 217 | 0.9 | 7.0 | 0.00 | 0.06 | 0.00 | 66 | 1016.3 |
| 20260502111518 | 59 | 240 | 2.6 | 7.0 | 0.00 | 0.06 | 0.00 | 65 | 1016.4 |
| 20260502110012 | 59 | 183 | 1.7 | 5.2 | 0.00 | 0.06 | 0.00 | 70 | 1016.4 |
| 20260502104511 | 57 | 306 | 0.0 | 2.6 | 0.00 | 0.06 | 0.00 | 71 | 1016.7 |
| 20260502103054 | 58 | 228 | 0.0 | 2.6 | 0.00 | 0.06 | 0.00 | 72 | 1016.7 |
| 20260502101533 | 58 | 320 | 0.0 | 1.7 | 0.00 | 0.06 | 0.00 | 75 | 1016.7 |
| 20260502091512 | 56 | 295 | 0.0 | 6.1 | 0.00 | 0.06 | 0.00 | 76 | 1017.5 |
| 20260502071529 | 52 | 233 | 0.0 | 0.9 | 0.00 | 0.05 | 0.00 | 87 | 1017.5 |
| 20260502070026 | 50 | 239 | 0.0 | 2.6 | 0.00 | 0.05 | 0.00 | 88 | 1017.6 |
| 20260502064525 | 49 | 219 | 0.9 | 1.7 | 0.00 | 0.05 | 0.00 | 88 | 1017.7 |
| 20260502063020 | 49 | 195 | 0.0 | 0.9 | 0.00 | 0.05 | 0.00 | 89 | 1017.6 |
| 20260502061518 | 48 | 214 | 0.0 | 0.0 | 0.00 | 0.05 | 0.00 | 89 | 1017.6 |
| 20260502060028 | 48 | 216 | 0.0 | 0.0 | 0.00 | 0.05 | 0.00 | 89 | 1017.6 |
| 20260502054541 | 48 | 216 | 0.0 | 0.9 | 0.00 | 0.05 | 0.00 | 89 | 1017.5 |
| 20260502053029 | 47 | 216 | 0.0 | 1.7 | 0.00 | 0.05 | 0.00 | 89 | 1017.4 |
| 20260502051503 | 47 | 216 | 0.0 | 1.7 | 0.00 | 0.05 | 0.00 | 89 | 1017.5 |
| 20260502050005 | 46 | 215 | 0.0 | 0.9 | 0.00 | 0.05 | 0.00 | 89 | 1017.4 |
| 20260502044505 | 46 | 216 | 0.0 | 1.7 | 0.00 | 0.05 | 0.00 | 89 | 1017.4 |
| 20260502043003 | 46 | 241 | 0.9 | 2.6 | 0.00 | 0.05 | 0.00 | 89 | 1017.3 |
| 20260502041511 | 46 | 223 | 0.0 | 2.6 | 0.00 | 0.05 | 0.00 | 89 | 1017.4 |
| 20260502040010 | 46 | 226 | 1.7 | 2.6 | 0.00 | 0.05 | 0.00 | 89 | 1017.5 |
| 20260502034510 | 45 | 225 | 0.0 | 1.7 | 0.00 | 0.05 | 0.00 | 89 | 1017.6 |
| 20260502033008 | 44 | 223 | 0.0 | 0.0 | 0.00 | 0.05 | 0.00 | 89 | 1017.7 |
| 20260502031504 | 44 | 223 | 0.0 | 0.0 | 0.00 | 0.05 | 0.00 | 89 | 1017.9 |
| 20260502030004 | 44 | 223 | 0.0 | 0.0 | 0.00 | 0.05 | 0.00 | 89 | 1018.0 |
| 20260502024516 | 45 | 222 | 0.0 | 1.7 | 0.00 | 0.05 | 0.00 | 89 | 1018.0 |
| 20260502023011 | 44 | 230 | 0.0 | 0.9 | 0.00 | 0.05 | 0.00 | 89 | 1018.1 |
| 20260502021510 | 44 | 221 | 0.0 | 0.0 | 0.00 | 0.05 | 0.00 | 89 | 1018.2 |
| 20260502020018 | 45 | 221 | 0.0 | 0.0 | 0.00 | 0.05 | 0.00 | 89 | 1018.3 |
| 20260502014506 | 45 | 221 | 0.0 | 0.9 | 0.00 | 0.05 | 0.00 | 89 | 1018.5 |
| 20260502013019 | 45 | 221 | 0.0 | 0.0 | 0.00 | 0.05 | 0.00 | 89 | 1018.7 |
| 20260502011516 | 45 | 221 | 0.0 | 0.9 | 0.00 | 0.05 | 0.00 | 89 | 1018.8 |